Other Surface Observations
Issued by NWS Tucson, AZ

Home | Current Version | Previous Version | Text Only | Print | Product List | Glossary On
Versions: 1 2 3 4 5 6 7 8 9 10 11 12 13 14 15 16 17 18 19 20 21 22 23 24 25 26 27 28 29 30 31 32 33 34 35 36 37 38 39 40 41 42 43 44 45 46 47 48 49 50
691
SXUS55 KTWC 291515
OSOTWC

WEATHER ROUNDUP FOR SOUTHEAST ARIZONA
NATIONAL WEATHER SERVICE TUCSON AZ
815 AM MST WED MAR 29 2017

AZZ504>506-514-291615-
LOCATION       SKY/WX    TMP DP  RH WIND       PRES   REMARKS
TUCSON         SUNNY     53  29  39 S3        30.03R
DAVIS-MONTHAN  SUNNY     55  29  36 SE6       30.02R
CHILDRENS PARK N/A      N/A N/A  57 E4                PIMA CO DEQ
ALVERNON/22ND  N/A       49 N/A N/A SE2               PIMA CO DEQ
CHERRY/GLENN   N/A       49 N/A N/A SE6               PIMA CO DEQ
TANGERINE      N/A       46 N/A N/A NE3               PIMA CO DEQ
CONTL RANCH    N/A       46  33  60 S4                PIMA CO DEQ
GRANT/1ST      N/A       50  33  51 SE3               PIMA CO DEQ
CRAYCROFT/22ND N/A       49  31  50 N/A               PIMA CO DEQ
GOLFLINKS/KOLB N/A       50  29  44 SE4               PIMA CO DEQ
AJO/12TH       N/A       45  32  60 S6                PIMA CO DEQ
FAIRGROUNDS    N/A       44 N/A N/A SE7               PIMA CO DEQ
SAGUARO        N/A       52  33  48 N3                *SABINO CYN
SAN CARLOS     N/A       48  33  55 W5                *SAN CARLOS
GREEN VALLEY   N/A       43  30  60 S6                PIMA CO DEQ
HORSE CAMP CYN N/A       53  25  33 CALM              *ARAVAIPA CYN
RINCON MTNS    N/A       38  23  54 NW6G16            *NR MANNING CAMP
$$

AZZ509>511-291615-
LOCATION       SKY/WX    TMP DP  RH WIND       PRES   REMARKS
SAFFORD        SUNNY     55  32  41 NW16      29.98R
STRAY HORSE    N/A       33  27  79 N/A               *
TRAIL CABIN    N/A       44  29  56 NW4               *N OF GRANVILLE
BLACK HILLS    NOT AVBL
DRY LAKE       N/A       33  22  64 N10G21            *NATANES MTNS
NOON CREEK     N/A       54  24  31 E8G17             *PINALENO MTNS
COLUMBINE      N/A       26  21  81 NE6G17            *PINALENO MTNS
GUTHRIE        N/A       40  24  53 N18G35            *SW OF GUTHRIE
$$

AZZ502-503-513-291615-
LOCATION       SKY/WX    TMP DP  RH WIND       PRES   REMARKS
NOGALES        SUNNY     51  25  36 CALM      30.03R
SELLS          N/A       51  26  38 E5                *
SASABE         N/A       44  27  51 SW3               *ALTAR VLY
HOPKINS        N/A       45  20  36 NW12G25           *SANTA RITA MTNS
CARR CYN       N/A       53  22  30 W3G10             *W OF HEREFORD
$$

AZZ507-508-512-291615-
LOCATION       SKY/WX    TMP DP  RH WIND       PRES   REMARKS
SIERRA VISTA   SUNNY     54  21  27 NW13      30.05S
DOUGLAS        SUNNY     52  27  38 W6        30.03R
EMPIRE MTNS    NOT AVBL
MULESHOE RANCH N/A       42  28  58 CALM              *PRESERVE
HEADQUARTERS   N/A       45  33  62 NE2               *CHIRICAHUA MTNS
$$

.............................NOTES.............................
THIS IS AN AUTOMATED COLLECTIVE WITH MINIMAL QUALITY CONTROL.
PIMA CO DEQ SITES HAVE NONSTANDARD WIND SENSOR HEIGHTS.
PIMA CO DEQ SITES DO NOT REPORT WIND GUSTS.
* INDICATES WIND SENSORS LOCATED AT 20 FEET INSTEAD OF 33 FEET.
..............................KEY..............................
SKY/WX - SKY CONDITION/WEATHER
TMP    - TEMPERATURE IN FAHRENHEIT
DP     - DEWPOINT IN FAHRENHEIT
RH     - RELATIVE HUMIDITY IN PERCENT
WIND   - DIRECTION AND SPEED IN MILES PER HOUR (MPH)
VRB    - VARIABLE WIND DIRECTION
PRES   - MEAN SEA LEVEL PRESSURE IN INCHES OF MERCURY
         F - FALLING PRESSURE   R - RISING PRESSURE
         S - STEADY PRESSURE
VSB    - VISIBILITY IN MILES
HX     - HEAT INDEX IN FAHRENHEIT
WCI    - WIND CHILL INDEX IN FAHRENHEIT
N/A    - NOT AVAILABLE
AFB    - AIR FORCE BASE
         DAVIS-MONTHAN IS DAVIS-MONTHAN AIR FORCE BASE
CYN    - CANYON
MTNS   - MOUNTAINS
NCA    - NATIONAL CONSERVATION AREA
NR     - NEAR
VLY    - VALLEY
CONTL  - CONTINENTAL
PIMA CO DEQ - PIMA COUNTY DEPT OF ENVIRONMENTAL QUALITY



USA.gov is the U.S. government's official web portal to all federal, state and local government web resources and services.